UWWWUWKD

Guest
Details From UWWW - KURUMOCH
To UWKD - KAZAN
Flight Number -
Tags generated
Created
Modified
Stats Distance 131 nm / 242 km
Max Altitude 14,600 ft / 4,450 m
Waypoints 3
Social Downloads 0
Likes 0
Share VATSIM

Download

Looking for another format? Having issues loading an existing format? Contact us
Advertisement - Login to hide

Notes

Basic altitude profile: - Ascent Rate: 2500ft/min - Ascent Speed: 250kts - Cruise Altitude: 35000ft - Cruise Speed: 420kts - Descent Rate: 1500ft/min - Descent Speed: 250kts

Route

UWWW A368 GINUK UWKD

ID Type Via Altitude Latitude Longitude Leg Dist Tot Dist Heading (true) Name
O UWWW APT - 0 ft / 0 m 53.50490˚ 50.16443˚ - 0 nm - KURUMOCH
GINUK FIX A368 (AWY-LO) 14,600 ft / 4,450 m 54.23333˚ 50.06500˚ 43 nm 43 nm 355° / 355° -
O UWKD APT - 0 ft / 0 m 55.60654˚ 49.27969˚ 86 nm 130 nm 342° / 341° KAZAN

Altitude Profile

Advertisement - Login to hide

UWWW

Details ICAO UWWW (KBY)
Name KURUMOCH
Region Russia
Timezone Europe/Samara (UTC+4.0)
Stats Elevation 477 ft / 145 m (AMSL)
Location 53.504905° 50.164434°
Runways 2
Magnetic Variation 12.178° E

METAR

UWWW 231300Z 21004MPS CAVOK 25/06 Q1026 R15/CLRD60 NOSIG RMK QFE757/1010

Decode

TAF

TAF UWWW 231100Z 2312/2412 20003G09MPS 9999 SCT030 TX26/2411Z TN14/2402Z TEMPO 2312/2315 24005G10MPS TEMPO 2315/2403 VRB01MPS TEMPO 2403/2409 32003G09MPS BECMG 2409/2411 05003G09MPS

Decode

Departure Runways

ID Width Length Bearing (true) Bearing (mag) Surface Threshold Offset Overrun Length
05 197 ft / 60 m 8,483 ft / 2,586 m 61.70° 49.52° Asphalt 0 ft / 0 m 75 ft / 23 m
15 148 ft / 45 m 9,845 ft / 3,001 m 160.00° 147.82° Concrete 0 ft / 0 m 175 ft / 53 m
23 197 ft / 60 m 8,483 ft / 2,586 m 241.73° 229.55° Asphalt 0 ft / 0 m 180 ft / 55 m
33 148 ft / 45 m 9,845 ft / 3,001 m 340.01° 327.83° Concrete 0 ft / 0 m 175 ft / 53 m

UWKD

Details ICAO UWKD (KZN)
Name KAZAN
Region Russia
Timezone Europe/Moscow (UTC+3.0)
Stats Elevation 411 ft / 125 m (AMSL)
Location 55.606544° 49.279689°
Runways 2
Magnetic Variation 13.334° E

METAR

UWKD 231300Z 23003MPS 190V260 CAVOK 22/10 Q1024 R29/CLRD70 NOSIG RMK QFE757/1009

Decode

TAF

TAF UWKD 231056Z 2312/2412 20003MPS 9999 SCT040 TX26/2312Z TN10/2402Z TEMPO 2312/2315 18010MPS BKN016CB BECMG 2320/2322 27003MPS TEMPO 2322/2406 24010MPS 5000 -SHRA BKN016CB

Decode

Destination Runways

ID Width Length Bearing (true) Bearing (mag) Surface Threshold Offset Overrun Length
11L 144 ft / 44 m 12,189 ft / 3,715 m 126.46° 113.13° Concrete 837 ft / 255 m 0 ft / 0 m
11R 148 ft / 45 m 8,174 ft / 2,492 m 124.48° 111.15° Concrete 0 ft / 0 m 180 ft / 55 m
29L 148 ft / 45 m 8,174 ft / 2,492 m 304.51° 291.18° Concrete 0 ft / 0 m 180 ft / 55 m
29R 144 ft / 44 m 12,189 ft / 3,715 m 306.50° 293.17° Concrete 0 ft / 0 m 160 ft / 49 m

Popular Alternatives